Location: Boiro
(42.6475°N, 8.8834°W)
Time: 07:01:54
(UTC+02:00)

FALCONSAT-6 - Pass Details

Date: 11 July 2022
Orbit: 555 x 585 km, 97.6° (Epoch: 10 August)

Event Time Altitude Azimuth Distance (km) Brightness Sun altitude
Exits shadow 00:31:08 29° 199° (SSW) 1,070 ? -18.6°
Maximum altitude 00:32:55 52° 260° (W) 730 ? -18.8°
Drops below altitude 10° 00:36:57 10° 338° (NNW) 1,901 ? -19.2°
Sets 00:39:10 0° 343° (NNW) 2,800 ? -19.4°
